Time,TemperatureF,DewpointF,PressureIn,WindDirection,WindDirectionDegrees,WindSpeedMPH,WindSpeedGustMPH,Humidity,HourlyPrecipIn,Conditions,Clouds,dailyrainin,SoftwareType,DateUTC
2013-08-18 00:00:00,74.3,51.8,30.24,NNE,22,0.0,0.0,44,0.00,,,0.00,WeatherTracker,2013-08-18 04:00:00,
2013-08-18 00:05:00,74.3,51.8,30.24,North,0,0.0,0.0,44,0.00,,,0.00,WeatherTracker,2013-08-18 04:05:00,
2013-08-18 00:10:00,74.3,51.8,30.24,ENE,67,0.0,0.0,44,0.00,,,0.00,WeatherTracker,2013-08-18 04:10:00,
2013-08-18 00:15:00,74.1,51.8,30.24,ENE,67,0.0,0.0,44,0.00,,,0.00,WeatherTracker,2013-08-18 04:15:00,
2013-08-18 00:20:00,73.9,50.0,30.24,ENE,67,0.0,0.0,43,0.00,,,0.00,WeatherTracker,2013-08-18 04:20:00,
2013-08-18 00:25:00,73.9,51.8,30.21,ENE,67,0.0,0.0,44,0.00,,,0.00,WeatherTracker,2013-08-18 04:25:00,
2013-08-18 00:35:00,74.1,51.8,30.21,NW,315,0.0,0.0,44,0.00,,,0.00,WeatherTracker,2013-08-18 04:35:00,
2013-08-18 00:40:00,74.3,51.8,30.21,West,270,0.0,0.0,44,0.00,,,0.00,WeatherTracker,2013-08-18 04:40:00,
2013-08-18 00:45:00,74.1,50.0,30.21,NE,45,0.0,0.0,43,0.00,,,0.00,WeatherTracker,2013-08-18 04:45:00,
2013-08-18 00:50:00,74.1,50.0,30.21,WNW,292,0.0,0.0,43,0.00,,,0.00,WeatherTracker,2013-08-18 04:50:00,
2013-08-18 00:55:00,74.3,50.0,30.21,West,270,0.0,0.0,43,0.00,,,0.00,WeatherTracker,2013-08-18 04:55:00,
2013-08-18 01:00:00,74.1,50.0,30.21,West,270,0.0,0.0,43,0.00,,,0.00,WeatherTracker,2013-08-18 05:00:00,
2013-08-18 01:05:00,74.1,50.0,30.21,NE,45,0.0,0.0,43,0.00,,,0.00,WeatherTracker,2013-08-18 05:05:00,
2013-08-18 01:10:00,73.9,50.0,30.21,West,270,0.0,0.0,43,0.00,,,0.00,WeatherTracker,2013-08-18 05:10:00,
2013-08-18 01:15:00,73.9,50.0,30.21,WNW,292,0.0,0.0,43,0.00,,,0.00,WeatherTracker,2013-08-18 05:15:00,
2013-08-18 01:20:00,73.9,50.0,30.21,West,270,0.0,0.0,43,0.00,,,0.00,WeatherTracker,2013-08-18 05:20:00,
2013-08-18 01:25:00,73.9,50.0,30.21,North,0,0.0,0.0,43,0.00,,,0.00,WeatherTracker,2013-08-18 05:25:00,
2013-08-18 01:30:00,73.9,50.0,30.21,NE,45,0.0,0.0,43,0.00,,,0.00,WeatherTracker,2013-08-18 05:30:00,
2013-08-18 01:40:00,73.9,51.8,30.21,NW,315,0.0,0.0,44,0.00,,,0.00,WeatherTracker,2013-08-18 05:40:00,
2013-08-18 01:45:00,73.9,51.8,30.21,East,90,0.0,0.0,44,0.00,,,0.00,WeatherTracker,2013-08-18 05:45:00,
2013-08-18 01:50:00,73.9,50.0,30.21,East,90,0.0,0.0,43,0.00,,,0.00,WeatherTracker,2013-08-18 05:50:00,
2013-08-18 01:55:00,73.9,50.0,30.21,NE,45,0.0,0.0,43,0.00,,,0.00,WeatherTracker,2013-08-18 05:55:00,
2013-08-18 02:00:00,74.1,50.0,30.21,NE,45,0.0,0.0,43,0.00,,,0.00,WeatherTracker,2013-08-18 06:00:00,
2013-08-18 02:10:00,74.1,50.0,30.21,NNE,22,0.0,0.0,43,0.00,,,0.00,WeatherTracker,2013-08-18 06:10:00,
2013-08-18 02:20:00,73.9,50.0,30.21,WNW,292,0.0,0.0,43,0.00,,,0.00,WeatherTracker,2013-08-18 06:20:00,
2013-08-18 02:25:00,73.9,50.0,30.21,West,270,0.0,0.0,43,0.00,,,0.00,WeatherTracker,2013-08-18 06:25:00,
2013-08-18 02:30:00,73.9,50.0,30.21,NNW,337,0.0,0.0,43,0.00,,,0.00,WeatherTracker,2013-08-18 06:30:00,
2013-08-18 02:35:00,73.9,50.0,30.21,East,90,0.0,0.0,43,0.00,,,0.00,WeatherTracker,2013-08-18 06:35:00,
2013-08-18 02:45:00,73.8,50.0,30.21,East,90,0.0,0.0,43,0.00,,,0.00,WeatherTracker,2013-08-18 06:45:00,
2013-08-18 02:55:00,73.9,50.0,30.21,NW,315,1.0,1.0,43,0.00,,,0.00,WeatherTracker,2013-08-18 06:55:00,
2013-08-18 03:00:00,73.9,50.0,30.21,NW,315,0.0,0.0,43,0.00,,,0.00,WeatherTracker,2013-08-18 07:00:00,
2013-08-18 03:05:00,73.8,50.0,30.21,NW,315,0.0,0.0,43,0.00,,,0.00,WeatherTracker,2013-08-18 07:05:00,
2013-08-18 03:10:00,73.8,50.0,30.21,WNW,292,0.0,0.0,43,0.00,,,0.00,WeatherTracker,2013-08-18 07:10:00,
2013-08-18 03:15:00,73.8,50.0,30.21,NW,315,0.0,1.0,43,0.00,,,0.00,WeatherTracker,2013-08-18 07:15:00,
2013-08-18 03:20:00,73.9,50.0,30.21,WNW,292,0.0,0.0,43,0.00,,,0.00,WeatherTracker,2013-08-18 07:20:00,
2013-08-18 03:30:00,73.9,50.0,30.21,NNW,337,0.0,0.0,43,0.00,,,0.00,WeatherTracker,2013-08-18 07:30:00,
2013-08-18 03:35:00,73.9,50.0,30.21,NE,45,0.0,0.0,43,0.00,,,0.00,WeatherTracker,2013-08-18 07:35:00,
2013-08-18 03:40:00,73.9,50.0,30.21,NE,45,0.0,0.0,43,0.00,,,0.00,WeatherTracker,2013-08-18 07:40:00,
2013-08-18 03:45:00,73.8,50.0,30.21,NE,45,0.0,0.0,43,0.00,,,0.00,WeatherTracker,2013-08-18 07:45:00,
2013-08-18 03:50:00,73.8,50.0,30.21,NE,45,0.0,0.0,43,0.00,,,0.00,WeatherTracker,2013-08-18 07:50:00,
2013-08-18 04:00:00,73.9,50.0,30.21,NE,45,0.0,0.0,43,0.00,,,0.00,WeatherTracker,2013-08-18 08:00:00,
2013-08-18 04:05:00,73.8,50.0,30.21,NE,45,0.0,0.0,43,0.00,,,0.00,WeatherTracker,2013-08-18 08:05:00,
2013-08-18 04:10:00,73.6,50.0,30.21,NE,45,0.0,0.0,43,0.00,,,0.00,WeatherTracker,2013-08-18 08:10:00,
2013-08-18 04:15:00,73.6,50.0,30.21,NE,45,0.0,0.0,43,0.00,,,0.00,WeatherTracker,2013-08-18 08:15:00,
2013-08-18 04:20:00,73.6,50.0,30.21,NE,45,0.0,0.0,43,0.00,,,0.00,WeatherTracker,2013-08-18 08:20:00,
2013-08-18 04:30:00,73.4,50.0,30.21,NE,45,0.0,0.0,44,0.00,,,0.00,WeatherTracker,2013-08-18 08:30:00,
2013-08-18 04:40:00,73.4,50.0,30.21,NE,45,0.0,0.0,44,0.00,,,0.00,WeatherTracker,2013-08-18 08:40:00,
2013-08-18 04:45:00,73.4,50.0,30.21,NE,45,0.0,0.0,44,0.00,,,0.00,WeatherTracker,2013-08-18 08:45:00,
2013-08-18 04:50:00,73.2,51.8,30.21,SE,135,0.0,0.0,45,0.00,,,0.00,WeatherTracker,2013-08-18 08:50:00,
2013-08-18 05:00:00,73.0,51.8,30.21,SE,135,0.0,0.0,48,0.00,,,0.00,WeatherTracker,2013-08-18 09:00:00,
2013-08-18 05:05:00,72.9,51.8,30.21,SE,135,0.0,0.0,48,0.00,,,0.00,WeatherTracker,2013-08-18 09:05:00,
2013-08-18 05:15:00,72.7,53.6,30.21,SE,135,0.0,0.0,49,0.00,,,0.00,WeatherTracker,2013-08-18 09:15:00,
2013-08-18 05:20:00,72.5,53.6,30.21,SE,135,0.0,0.0,50,0.00,,,0.00,WeatherTracker,2013-08-18 09:20:00,
2013-08-18 05:25:00,72.5,53.6,30.21,SE,135,0.0,0.0,50,0.00,,,0.00,WeatherTracker,2013-08-18 09:25:00,
2013-08-18 05:30:00,72.5,55.4,30.21,SE,135,0.0,0.0,52,0.00,,,0.00,WeatherTracker,2013-08-18 09:30:00,
2013-08-18 05:35:00,72.3,53.6,30.21,SE,135,0.0,0.0,52,0.00,,,0.00,WeatherTracker,2013-08-18 09:35:00,
2013-08-18 05:40:00,72.1,53.6,30.21,SE,135,0.0,0.0,52,0.00,,,0.00,WeatherTracker,2013-08-18 09:40:00,
2013-08-18 05:50:00,72.0,55.4,30.21,SE,135,0.0,0.0,53,0.00,,,0.00,WeatherTracker,2013-08-18 09:50:00,
2013-08-18 05:55:00,72.0,55.4,30.21,SE,135,0.0,0.0,54,0.00,,,0.00,WeatherTracker,2013-08-18 09:55:00,
2013-08-18 06:00:00,72.0,55.4,30.21,SE,135,0.0,0.0,54,0.00,,,0.00,WeatherTracker,2013-08-18 10:00:00,
2013-08-18 06:05:00,71.8,53.6,30.21,SE,135,0.0,0.0,53,0.00,,,0.00,WeatherTracker,2013-08-18 10:05:00,
2013-08-18 06:10:00,71.8,53.6,30.21,SE,135,0.0,0.0,53,0.00,,,0.00,WeatherTracker,2013-08-18 10:10:00,
2013-08-18 06:15:00,71.8,55.4,30.21,SE,135,0.0,0.0,54,0.00,,,0.00,WeatherTracker,2013-08-18 10:15:00,
2013-08-18 06:25:00,71.6,55.4,30.21,SE,135,0.0,0.0,56,0.00,,,0.00,WeatherTracker,2013-08-18 10:25:00,
2013-08-18 06:30:00,71.6,55.4,30.21,SE,135,0.0,0.0,57,0.00,,,0.00,WeatherTracker,2013-08-18 10:30:00,
2013-08-18 06:35:00,71.6,55.4,30.21,SE,135,0.0,0.0,57,0.00,,,0.00,WeatherTracker,2013-08-18 10:35:00,
2013-08-18 06:40:00,71.6,55.4,30.21,SE,135,0.0,0.0,58,0.00,,,0.00,WeatherTracker,2013-08-18 10:40:00,
2013-08-18 06:45:00,71.4,55.4,30.21,SE,135,0.0,0.0,58,0.00,,,0.00,WeatherTracker,2013-08-18 10:45:00,
2013-08-18 06:50:00,71.4,57.2,30.21,SE,135,0.0,0.0,59,0.00,,,0.00,WeatherTracker,2013-08-18 10:50:00,
2013-08-18 07:00:00,71.4,59.0,30.21,East,90,0.0,0.0,63,0.00,,,0.00,WeatherTracker,2013-08-18 11:00:00,
2013-08-18 07:05:00,71.4,59.0,30.21,East,90,0.0,0.0,64,0.00,,,0.00,WeatherTracker,2013-08-18 11:05:00,
2013-08-18 07:10:00,71.4,59.0,30.21,SE,135,0.0,0.0,63,0.00,,,0.00,WeatherTracker,2013-08-18 11:10:00,
2013-08-18 07:15:00,71.4,59.0,30.21,SE,135,0.0,0.0,64,0.00,,,0.00,WeatherTracker,2013-08-18 11:15:00,
2013-08-18 07:20:00,71.4,59.0,30.21,SE,135,0.0,0.0,63,0.00,,,0.00,WeatherTracker,2013-08-18 11:20:00,
2013-08-18 07:25:00,71.4,57.2,30.21,SE,135,0.0,0.0,62,0.00,,,0.00,WeatherTracker,2013-08-18 11:25:00,
2013-08-18 07:35:00,71.4,57.2,30.21,NE,45,0.0,0.0,62,0.00,,,0.00,WeatherTracker,2013-08-18 11:35:00,
2013-08-18 07:45:00,71.6,57.2,30.21,SE,135,0.0,0.0,60,0.00,,,0.00,WeatherTracker,2013-08-18 11:45:00,
2013-08-18 07:50:00,71.6,57.2,30.21,SE,135,0.0,0.0,60,0.00,,,0.00,WeatherTracker,2013-08-18 11:50:00,
2013-08-18 07:55:00,71.8,57.2,30.24,SE,135,0.0,0.0,60,0.00,,,0.00,WeatherTracker,2013-08-18 11:55:00,
2013-08-18 08:00:00,71.8,57.2,30.24,SE,135,0.0,0.0,59,0.00,,,0.00,WeatherTracker,2013-08-18 12:00:00,
2013-08-18 08:10:00,72.0,57.2,30.21,SE,135,0.0,0.0,59,0.00,,,0.00,WeatherTracker,2013-08-18 12:10:00,
2013-08-18 08:15:00,72.1,57.2,30.21,NE,45,0.0,0.0,60,0.00,,,0.00,WeatherTracker,2013-08-18 12:15:00,
2013-08-18 08:20:00,72.1,57.2,30.21,NE,45,0.0,0.0,59,0.00,,,0.00,WeatherTracker,2013-08-18 12:20:00,
2013-08-18 08:25:00,72.3,57.2,30.21,NE,45,0.0,0.0,58,0.00,,,0.00,WeatherTracker,2013-08-18 12:25:00,
2013-08-18 08:30:00,72.7,57.2,30.21,NE,45,0.0,0.0,58,0.00,,,0.00,WeatherTracker,2013-08-18 12:30:00,
2013-08-18 08:35:00,72.9,57.2,30.21,NE,45,0.0,0.0,57,0.00,,,0.00,WeatherTracker,2013-08-18 12:35:00,
2013-08-18 08:45:00,73.0,57.2,30.21,NE,45,0.0,0.0,57,0.00,,,0.00,WeatherTracker,2013-08-18 12:45:00,
2013-08-18 08:50:00,73.0,57.2,30.21,NE,45,0.0,0.0,57,0.00,,,0.00,WeatherTracker,2013-08-18 12:50:00,
2013-08-18 08:55:00,73.2,57.2,30.21,NE,45,0.0,0.0,57,0.00,,,0.00,WeatherTracker,2013-08-18 12:55:00,
2013-08-18 09:00:00,73.4,57.2,30.21,SE,135,0.0,0.0,56,0.00,,,0.00,WeatherTracker,2013-08-18 13:00:00,
2013-08-18 09:10:00,73.6,57.2,30.21,East,90,0.0,0.0,56,0.00,,,0.00,WeatherTracker,2013-08-18 13:10:00,
2013-08-18 09:15:00,73.8,57.2,30.21,East,90,0.0,0.0,56,0.00,,,0.00,WeatherTracker,2013-08-18 13:15:00,
2013-08-18 09:25:00,73.9,57.2,30.21,ESE,112,0.0,0.0,54,0.00,,,0.00,WeatherTracker,2013-08-18 13:25:00,
2013-08-18 09:30:00,74.3,57.2,30.21,ESE,112,0.0,0.0,53,0.00,,,0.00,WeatherTracker,2013-08-18 13:30:00,
2013-08-18 09:35:00,74.5,55.4,30.21,North,0,0.0,1.0,52,0.00,,,0.00,WeatherTracker,2013-08-18 13:35:00,
2013-08-18 09:40:00,74.5,55.4,30.21,SSE,157,0.0,0.0,51,0.00,,,0.00,WeatherTracker,2013-08-18 13:40:00,
2013-08-18 09:45:00,74.5,55.4,30.21,East,90,0.0,0.0,50,0.00,,,0.00,WeatherTracker,2013-08-18 13:45:00,
2013-08-18 10:25:00,75.7,53.6,30.21,East,90,0.0,0.0,46,0.00,,,0.00,WeatherTracker,2013-08-18 14:25:00,
2013-08-18 10:30:00,75.9,53.6,30.21,SE,135,0.0,0.0,46,0.00,,,0.00,WeatherTracker,2013-08-18 14:30:00,
2013-08-18 10:35:00,76.1,55.4,30.21,SE,135,0.0,0.0,46,0.00,,,0.00,WeatherTracker,2013-08-18 14:35:00,
2013-08-18 10:40:00,76.5,55.4,30.21,SE,135,0.0,0.0,46,0.00,,,0.00,WeatherTracker,2013-08-18 14:40:00,
2013-08-18 10:45:00,76.6,53.6,30.21,SE,135,0.0,0.0,44,0.00,,,0.00,WeatherTracker,2013-08-18 14:45:00,
2013-08-18 10:50:00,76.8,55.4,30.21,SE,135,0.0,0.0,45,0.00,,,0.00,WeatherTracker,2013-08-18 14:50:00,
2013-08-18 10:55:00,77.2,53.6,30.21,SE,135,0.0,0.0,44,0.00,,,0.00,WeatherTracker,2013-08-18 14:55:00,
2013-08-18 11:05:00,77.2,55.4,30.21,SE,135,0.0,0.0,45,0.00,,,0.00,WeatherTracker,2013-08-18 15:05:00,
2013-08-18 11:10:00,77.2,55.4,30.21,SE,135,0.0,0.0,45,0.00,,,0.00,WeatherTracker,2013-08-18 15:10:00,